Rockford, IL

12:43 PM CDT on April 27, 2017 (GMT -0500)
Ingersoll Golf Course | | Change Station

Elev 810 ft 42.28 °N, 89.15 °W | Updated 8 seconds ago

Overcast
Overcast
41.7 °F
Feels Like 40 °F
N
3.4
Wind Variable Wind from NW
Gusts 4.9 mph

Today
High -- | Low -- °F
--% Chance of Precip.
Yesterday
High -- | Low -- °F
Precip. -- in
Pressure 29.61 in
Visibility 10.0 miles
Clouds Scattered Clouds 1000 ft
Mostly Cloudy 1600 ft
Overcast 2400 ft
Windchill 40 °F
Dew Point 38 °F
Humidity 87%
Rainfall 0.93 in
Snow Depth Not available.
5:56 AM 7:51 PM
New Moon, 2% visible
SPECI KRFD 271730Z 26014G23KT 10SM SCT010 BKN016 OVC024 06/02 A2961 RMK AO2 RAB1659E09 P0000 T00610022
Pressure 29.61 in
Visibility 10.0 miles
Clouds Scattered Clouds 1000 ft
Mostly Cloudy 1600 ft
Overcast 2400 ft
Windchill 40 °F
Dew Point 38 °F
Humidity 87%
Rainfall 0.93 in
Snow Depth Not available.
5:56 AM 7:51 PM
New Moon, 2% visible
SPECI KRFD 271730Z 26014G23KT 10SM SCT010 BKN016 OVC024 06/02 A2961 RMK AO2 RAB1659E09 P0000 T00610022

Get Severe Weather Alerts

Thanks for signing up!

Be on the lookout for a verification email in your inbox.

You'll start receiving the daily forecast at 8 AM.

×

10-Day Weather Forecast

Almanac

Astronomy

Apr. 27, 2017 Rise Set
Actual Time
Civil Twilight
Nautical Twilight
Astronomical Twilight
Moon
Length of Visible Light
Length of Day
Tomorrow will be .
, % of the Moon is Illuminated

Today's Extremes

State Highs State Lows

Community

WunderPhotos

WunderBlog® & News

Nearby

Air Quality

  Air Quality AQ Index Pollutant
Not available.

Snow Depth

Station Depth Elevation

Earthquake Activity

City Distance Mag. Time & Date
Minimum magnitude displayed is 2.5.

Coastal Water Temperatures

Place Temperature

Stations

Nearby Weather Stations

Station Location Temp. Windchill Dew Point Humidity Wind Precip. Elev Updated Type
                   

Watches & Warnings

There are currently no watches in effect.